Weather in Kharkiv

Ukraine / Kharkiv Region     49˚59′31″N   36˚13′52″E
temp.,
°C
wind,
m/s
gust,
m/s
humid.,
%
clouds,
%
prec.,
mm/h
press.,
hPa
HPBL,
m
28 november, sat
sat2823:00+4˚sw3891100 0.0 1019281
02:00+3˚sw2589100 0.0 1019163
05:00+3˚ssw2482100 0.0 1020203
08:00+3˚s2482100 0.0 1020196
11:00+5˚sse2588100 0.1 1021259
14:00+6˚s41293100 1.0 1020717
17:00+7˚sse51377100 0.1 1020648
20:00+6˚sse61382100 0.1 1021577
29 november, sun
sun2923:00+5˚sse61275100 0.0 1021440
02:00+5˚se51182100 0.0 1022411
05:00+5˚se61176100 0.0 1021450
08:00+3˚se61276100 0.0 1022407
11:00+4˚se51180100 0.0 1022468
14:00+5˚se5982100 0.0 1022470
17:00+5˚se51084100 0.0 1023490
20:00+6˚se51183100 0.0 1024504
30 november, mon
mon3023:00+6˚se61287100 0.0 1024609
02:00+5˚se61284100 0.0 1024654
05:00+5˚se61184100 0.0 1024674
08:00+5˚se51082100 0.0 1025771
11:00+6˚se61078100 0.0 1026806
14:00+6˚se5870100 0.0 1026904
17:00+5˚se5869100 0.0 1026900
20:00+5˚se4770100 0.0 1027899
1 december, tue
tue123:00+4˚ese4773100 0.0 1027703
02:00+3˚ese4865100 0.0 1027610
05:00+2˚ese4865100 0.0 1027620
08:00+1˚ese5871100 0.0 1028613
11:00+1˚ese587299 0.0 1028629
14:00+2˚ese587099 0.0 1028621
17:00+1˚ese5965100 0.0 1028651
20:00+1˚e61066100 0.0 1029564
2 december, wed
wed223:00ese51075100 0.0 1029651
02:00−1˚ese5982100 0.0 1029611
05:00−1˚ese5983100 0.1 1029553
08:00−1˚ese5986100 0.2 1030544
11:00ese4881100 0.1 1030565
14:00ese4877100 0.2 1030601
17:00ese5976100 0.0 1030511
20:00ese4971100 0.0 1031619